Neijiang

operational
NORAD ID: 63984 Int'l Des: NNA 2025-100 Owner: GUOX/ZJLAB Country: CN
LEOCIRCULARRETROGRADESSO

About Neijiang

Description loading...

Live Position

Loading 3D Globe...

Upcoming Passes

Altitude History

Altitude vs Time

uPlot chart will show altitude changes over time

Two-Line Element Set

1 63984U 25100C 25311.28298156 .00019167 00000-0 83691-3 0 9995
2 63984 97.3924 23.6169 0010732 67.0792 293.1576 15.22115381 26894
Epoch: Nov 7, 2025 • Age: 9 hours

Current Status

Altitude 500.7 km
Velocity 7.62 km/s
Sub-Earth Point -4.40°S, 93.87°E
Launch Date May 14, 2025
Age 0.4 years
Type other

Technical Details

Classification Payload
Mass 50.00 kg
Dry Mass 50.00 kg
Total Mass 50.00 kg
Length 0.30 m
Diameter 0.30 m
Span 0.30 m
Shape Box + 2 pan
Manufacturer GUOX
Bus Type XSD
Phase Status In Orbit
Owner/State GUOX/ZJLAB/CN

Large Constellations

Loading constellations...